User: anonymous   Login
Location: Deer Lodge Site
(39.6809°N, 119.9392°W)
Time: 10:31:48
(UTC-08:00)
Language:

CZ-4C R/B - Orbit

View from above orbital plane
View from above orbital plane
View from above satellite
View from above satellite

Ground track
Ground track

The orbit data is extracted from the following two-line orbital elements,

1 36416U 10009D   14354.88693351 -.00000044  00000-0  43714-4 0  7956
2 36416 063.4463 180.3884 0298325 359.6589 000.4200 13.69443402239842
Epoch (UTC): 20 December 2014 21:17:11
Eccentricity: 0.0298325
inclination: 63.4463°
perigee height: 781 km
apogee height: 1222 km
right ascension of ascending node: 180.3884°
argument of perigee: 359.6589°
revolutions per day: 13.69443402
mean anomaly at epoch: 0.4200°
orbit number at epoch: 23984

The dashed part of the orbit path shows where the satellite is in the earth's shadow,  

DLR